Погода в Духовском

Россия / Приморский край     44°35′40″N   131°32′09″E
темп.,
°C
ветер,
м/с
пор.,
м/с
влажн.,
%
обл.,
%
осадки,
мм/ч
давл.,
гПа
погр.,
м
17 апреля, сб
сб1701:00+6ююз236869 0.0 100872
04:00+3юз22875 0.0 100935
07:00+2зюз23700 0.0 101165
10:00+9зюз47361 0.0 10121507
13:00+11з4630100 0.0 10122519
16:00+13з352198 0.0 10102923
19:00+12с242589 0.0 1010375
22:00+7ссв224710 0.0 101221
18 апреля, вс
вс1801:00+6сз215198 0.0 101113
04:00+4сз225728 0.0 101121
07:00+3сз22675 0.0 101138
10:00+9с69515 0.0 10101406
13:00+12с694095 0.0 10082200
16:00+13с693599 0.0 10062429
19:00+12с49415 0.0 10061717
22:00+8зсз22555 0.0 100720
19 апреля, пн
пн1901:00+7зсз34613 0.0 100670
04:00+6зсз33550 0.0 100547
07:00+5з35590 0.0 100578
10:00+14сз262979 0.0 10041005
13:00+18сз47190 0.0 10022309
16:00+20зсз510198 0.0 10013086
19:00+19зсз592664 0.0 1000770
22:00+11ссз712527 0.0 10061086
20 апреля, вт
вт2001:00+7ссз512350 0.0 10111433
04:00+4ссз512290 0.0 10131243
07:00+3зсз513270 0.0 10141153
10:00+8зсз821210 0.0 10132247
13:00+12сз920140 0.0 10122601
16:00+14сз814120 0.0 10122325
19:00+13сз615170 0.0 10132077
22:00+11сз614220 0.0 1016822
21 апреля, ср
ср2101:00+10зсз512220 0.0 1018519
04:00+7зюз22290 0.0 101933
07:00+6з22365 0.0 102141
10:00+16зсз35190 0.0 1020615
13:00+21з25150 0.0 10182519
16:00+23сз35143 0.0 10172911
19:00+21ссз22210 0.0 101741
22:00+15ссз01308 0.0 101911